#timestamp,LO_Frequency,Hit,StdDev 
1583535615.8,286047000.1,N
1583535635.6,286046999.8,N
1583535655.4,286046998.2,N
1583535675.3,286046998.9,N
1583535695.1,286046998.4,N
1583535715.9,286046998.2,N
1583535735.7,286046999.3,N
1583535755.5,286047001.2,N
1583535775.4,286046999.5,N
1583535795.2,286046999.3,N
1583535815.1,286046997.7,N
1583535816.0,286046997.7,N
1583535835.8,286046997.9,N
1583535855.6,286046999.1,N
1583535875.5,286047000.8,N
1583535895.3,286046998.5,N
1583535915.2,286046997.0,N
1583535935.0,286046999.6,N
1583535935.9,286046999.6,N
1583535955.7,286046999.6,N
1583535975.6,286046998.9,N
1583535995.4,286046999.3,N
1583536015.3,286046996.7,Y
1583536035.1,286046997.0,P
1583536055.8,286046996.8,P
1583536075.7,286046998.3,N
1583536095.5,286046998.5,N
1583536115.4,286046996.6,Y
1583536135.2,286047000.0,P
1583536155.0,286047000.8,N
1583536155.9,286047000.8,N
1583536175.8,286046998.4,N
1583536195.6,286046997.5,N
1583536215.4,286046996.5,N
1583536235.3,286046997.1,N
1583536255.1,286046999.1,N
1583536275.9,286046997.0,N
1583536295.7,286046996.8,N
1583536315.5,286046999.1,N
1583536335.4,286046999.0,N
1583536355.2,286046996.5,N
1583536375.1,286046999.1,N
1583536376.0,286046999.1,N
1583536395.8,286046999.5,N
1583536415.6,286046997.3,N
1583536435.5,286046999.4,N
1583536455.3,286046997.0,N
1583536475.2,286046999.4,N
1583536495.9,286046998.3,N
1583536515.7,286046998.5,N
1583536535.6,286046999.6,N
1583536555.4,286046998.4,N
1583536575.2,286046999.7,N
1583536595.1,286047001.4,N
1583536596.0,286047001.4,N
1583536615.8,286047002.1,N
1583536635.7,286047002.7,N
1583536655.5,286047002.7,N
1583536675.3,286047002.5,N
1583536695.2,286047000.9,N
1583536715.0,286047000.6,N
1583536715.9,286047000.6,N
1583536735.8,286047000.9,N
1583536755.6,286047002.2,N
1583536775.4,286047003.6,N
1583536795.3,286047002.2,N
1583536815.1,286047000.4,N
1583536835.9,286047000.8,N
1583536855.7,286046998.1,N
1583536875.5,286047000.7,N
1583536895.4,286047000.3,N
1583536915.2,286046999.7,N
1583536935.0,286047000.9,N
1583536935.9,286047000.9,N
1583536955.8,286046998.1,N
1583536975.6,286047001.4,N
1583536995.5,286047004.1,N
1583537015.3,286047001.5,N
1583537035.2,286047002.4,N
1583537055.9,286047002.4,N
1583537075.7,286047003.1,N
1583537095.6,286047003.4,N
1583537115.4,286047004.2,N
1583537135.2,286047004.3,N
1583537155.1,286047004.1,N
1583537156.0,286047004.1,N
1583537175.8,286047001.3,N
1583537195.7,286047003.9,N
1583537215.5,286047003.0,N
1583537235.3,286047001.8,N
1583537255.2,286047002.1,N
1583537275.0,286046999.9,N
1583537275.9,286046999.9,N
1583537295.8,286047004.4,N
1583537315.6,286047003.8,N
1583537335.4,286047007.6,Y
1583537355.3,286047002.9,P
1583537375.1,286047003.8,P
1583537395.8,286047001.4,N
1583537415.7,286046999.8,N
1583537435.5,286047002.5,N
1583537455.4,286047003.5,N
1583537475.2,286047003.2,N
1583537495.0,286047006.0,Y
1583537495.9,286047006.0,P
1583537515.8,286047004.2,N
1583537535.6,286047001.7,N
1583537555.5,286046999.7,N
1583537575.3,286046999.8,N
1583537595.1,286047002.5,N
1583537615.9,286047004.3,N
1583537635.7,286047002.7,N
1583537655.6,286047002.5,N
1583537675.4,286047002.1,N
1583537695.2,286047004.3,N
1583537715.1,286047005.8,Y
1583537716.0,286047005.8,P
1583537735.8,286046998.5,N
1583537755.7,286046996.5,N
1583537775.5,286046996.9,N
1583537795.3,286046999.3,N
1583537815.2,286047001.0,N
1583537835.0,286046998.4,N
1583537835.9,286046998.4,N
1583537855.8,286046999.0,N
1583537875.6,286046998.4,N
1583537895.4,286046999.6,N
1583537915.3,286046997.4,N
1583537935.1,286046998.9,N
1583537955.9,286047002.3,N
1583537975.7,286047001.6,N
1583537995.5,286047000.6,N
1583538015.4,286046998.5,N
1583538035.2,286046998.1,N
1583538055.0,286046998.7,N
1583538055.9,286046998.7,N
1583538075.8,286046998.3,N
1583538095.6,286046998.3,N
1583538115.5,286047001.2,N
1583538135.3,286047002.6,N
1583538155.1,286047004.0,N
1583538175.9,286047001.9,N
1583538195.7,286047001.9,N
1583538215.6,286047004.4,N
1583538235.4,286047003.5,N
1583538255.2,286047002.3,N
1583538275.1,286047001.9,N
1583538276.0,286047001.9,N
1583538295.8,286047001.6,N
1583538315.7,286047002.5,N
1583538335.5,286046999.7,N
1583538355.3,286047004.0,N
1583538375.2,286047003.8,N
1583538395.0,286047003.0,N
1583538395.9,286047003.0,N
1583538415.8,286047001.6,N
1583538435.6,286047002.7,N
1583538455.4,286047001.9,N
1583538475.3,286047003.2,N
1583538495.1,286047001.4,N
1583538515.8,286047001.8,N
1583538535.7,286047000.1,N
1583538555.5,286046999.7,N
1583538575.4,286047000.3,N
1583538595.2,286047000.0,N
1583538615.0,286047000.4,N
1583538615.9,286047000.4,N
1583538635.8,286047000.5,N
1583538655.6,286046998.6,N
1583538675.5,286047001.1,N
1583538695.3,286047002.8,N
1583538715.1,286047002.8,N
1583538735.9,286047004.3,Y
1583538755.7,286046999.1,P
1583538775.5,286046996.9,N
1583538795.4,286046997.0,N
1583538815.2,286047001.0,N
1583538835.1,286047002.6,N
1583538836.0,286047002.6,N
1583538855.8,286047002.7,N
1583538875.6,286047002.4,N
1583538895.5,286047000.0,N
1583538915.3,286047001.4,N
1583538935.2,286047002.2,N
1583538955.9,286047003.8,N
1583538975.7,286047000.3,N
1583538995.6,286046998.5,N
1583539015.4,286047001.0,N
1583539035.3,286046998.1,N
1583539055.1,286046999.2,N
1583539056.0,286046999.2,N
1583539075.8,286047000.6,N
1583539095.7,286047000.9,N
1583539115.6,286047000.2,N
1583539135.4,286047002.2,N
1583539155.2,286047002.7,N
1583539175.1,286047000.4,N
1583539176.0,286047000.4,N
1583539195.8,286046997.6,N
